Time,TemperatureF,DewpointF,PressureIn,WindDirection,WindDirectionDegrees,WindSpeedMPH,WindSpeedGustMPH,Humidity,HourlyPrecipIn,Conditions,Clouds,dailyrainin,SoftwareType,DateUTC
2013-01-11 00:03:00,55.4,41.4,30.15,NNE,23,3.0,8.0,59,0.00,,,-99.99,meteohub,2013-01-10 23:03:00,
2013-01-11 00:19:00,56.3,41.2,30.16,WSW,248,2.0,9.0,56,0.00,,,0.00,meteohub,2013-01-10 23:19:00,
2013-01-11 00:34:00,55.6,41.0,30.16,SSE,158,1.0,2.0,58,0.00,,,0.00,meteohub,2013-01-10 23:34:00,
2013-01-11 00:50:00,54.7,41.0,30.16,South,180,1.0,3.0,60,0.00,,,0.00,meteohub,2013-01-10 23:50:00,
2013-01-11 01:05:00,54.1,41.2,30.16,SSW,203,3.0,5.0,61,0.00,,,0.00,meteohub,2013-01-11 00:05:00,
2013-01-11 01:20:00,53.1,41.4,30.16,SSW,203,2.0,4.0,64,0.00,,,0.00,meteohub,2013-01-11 00:20:00,
2013-01-11 01:36:00,52.0,41.4,30.15,SSW,203,1.0,3.0,67,0.00,,,0.00,meteohub,2013-01-11 00:36:00,
2013-01-11 01:51:00,51.1,41.2,30.15,SW,225,1.0,4.0,69,0.00,,,0.00,meteohub,2013-01-11 00:51:00,
2013-01-11 02:06:00,51.3,41.4,30.15,WSW,248,4.0,7.0,69,0.00,,,0.00,meteohub,2013-01-11 01:06:00,
2013-01-11 02:21:00,53.4,42.3,30.15,WSW,248,5.0,9.0,65,0.00,,,0.00,meteohub,2013-01-11 01:21:00,
2013-01-11 02:37:00,54.1,42.6,30.15,WSW,248,6.0,10.0,65,0.00,,,0.00,meteohub,2013-01-11 01:37:00,
2013-01-11 02:52:00,53.4,42.4,30.15,WSW,248,2.0,6.0,66,0.00,,,0.00,meteohub,2013-01-11 01:52:00,
2013-01-11 03:07:00,52.3,42.1,30.15,SW,225,1.0,3.0,68,0.00,,,0.00,meteohub,2013-01-11 02:07:00,
2013-01-11 03:23:00,51.6,42.4,30.14,West,270,1.0,5.0,71,0.00,,,0.00,meteohub,2013-01-11 02:23:00,
2013-01-11 03:38:00,50.9,42.3,30.13,NW,315,0.0,1.0,72,0.00,,,0.00,meteohub,2013-01-11 02:38:00,
2013-01-11 03:54:00,50.4,42.1,30.14,SW,225,0.0,3.0,73,0.00,,,0.00,meteohub,2013-01-11 02:54:00,
2013-01-11 04:10:00,52.5,44.2,30.13,West,270,2.0,8.0,73,0.00,,,0.00,meteohub,2013-01-11 03:10:00,
2013-01-11 04:25:00,52.7,44.2,30.12,WNW,293,5.0,12.0,73,0.00,,,0.00,meteohub,2013-01-11 03:25:00,
2013-01-11 04:40:00,52.7,43.9,30.12,West,270,5.0,9.0,72,0.00,,,0.00,meteohub,2013-01-11 03:40:00,
2013-01-11 04:56:00,53.1,44.1,30.12,NNE,23,3.0,7.0,71,0.00,,,0.00,meteohub,2013-01-11 03:56:00,
2013-01-11 05:11:00,52.5,44.1,30.12,North,0,2.0,4.0,73,0.00,,,0.00,meteohub,2013-01-11 04:11:00,
2013-01-11 05:27:00,52.2,44.1,30.12,NW,315,1.0,2.0,74,0.00,,,0.00,meteohub,2013-01-11 04:27:00,
2013-01-11 05:42:00,51.8,43.9,30.12,NW,315,3.0,9.0,74,0.00,,,0.00,meteohub,2013-01-11 04:42:00,
2013-01-11 05:58:00,51.1,44.4,30.12,WNW,293,4.0,10.0,78,0.00,,,0.00,meteohub,2013-01-11 04:58:00,
2013-01-11 06:13:00,51.6,44.6,30.13,NNW,338,3.0,10.0,77,0.00,,,0.00,meteohub,2013-01-11 05:13:00,
2013-01-11 06:29:00,52.2,44.2,30.13,WNW,293,3.0,8.0,74,0.00,,,0.00,meteohub,2013-01-11 05:29:00,
2013-01-11 06:44:00,52.0,44.1,30.14,NW,315,3.0,5.0,74,0.00,,,0.00,meteohub,2013-01-11 05:44:00,
2013-01-11 07:00:00,52.5,42.6,30.14,WNW,293,2.0,8.0,69,0.00,,,0.00,meteohub,2013-01-11 06:00:00,
2013-01-11 07:15:00,52.5,41.7,30.14,SSW,203,2.0,5.0,66,0.00,,,0.00,meteohub,2013-01-11 06:15:00,
2013-01-11 07:31:00,52.7,39.4,30.15,NE,45,4.0,8.0,60,0.00,,,0.00,meteohub,2013-01-11 06:31:00,
2013-01-11 07:46:00,52.5,38.1,30.15,North,0,4.0,9.0,58,0.00,,,0.00,meteohub,2013-01-11 06:46:00,
2013-01-11 08:01:00,51.6,36.7,30.15,NNW,338,4.0,6.0,56,0.00,,,0.00,meteohub,2013-01-11 07:01:00,
2013-01-11 08:18:00,51.6,37.2,30.15,North,0,5.0,8.0,57,0.00,,,0.00,meteohub,2013-01-11 07:18:00,
2013-01-11 08:33:00,51.3,38.3,30.15,WNW,293,3.0,8.0,61,0.00,,,0.00,meteohub,2013-01-11 07:33:00,
2013-01-11 08:49:00,51.4,39.7,30.16,North,0,4.0,9.0,64,0.00,,,0.00,meteohub,2013-01-11 07:49:00,
2013-01-11 09:05:00,51.6,39.9,30.16,North,0,1.0,3.0,64,0.00,,,0.00,meteohub,2013-01-11 08:05:00,
2013-01-11 09:20:00,52.5,40.3,30.16,SW,225,1.0,4.0,63,0.00,,,0.00,meteohub,2013-01-11 08:20:00,
2013-01-11 09:35:00,52.9,40.6,30.17,WNW,293,1.0,4.0,63,0.00,,,0.00,meteohub,2013-01-11 08:35:00,
2013-01-11 09:51:00,52.5,41.5,30.18,NW,315,4.0,10.0,66,0.00,,,0.00,meteohub,2013-01-11 08:51:00,
2013-01-11 10:06:00,52.9,41.2,30.18,NNW,338,3.0,8.0,64,0.00,,,0.00,meteohub,2013-01-11 09:06:00,
2013-01-11 10:22:00,54.0,41.7,30.18,NNW,338,2.0,4.0,63,0.00,,,0.00,meteohub,2013-01-11 09:22:00,
2013-01-11 10:37:00,54.7,41.7,30.18,NW,315,2.0,5.0,61,0.00,,,0.00,meteohub,2013-01-11 09:37:00,
2013-01-11 10:53:00,55.0,41.9,30.19,WNW,293,2.0,4.0,61,0.00,,,0.00,meteohub,2013-01-11 09:53:00,
2013-01-11 11:08:00,55.4,41.5,30.19,WNW,293,2.0,6.0,59,0.00,,,0.00,meteohub,2013-01-11 10:08:00,
2013-01-11 11:24:00,55.6,41.9,30.19,West,270,3.0,6.0,60,0.00,,,0.00,meteohub,2013-01-11 10:24:00,
2013-01-11 11:39:00,56.1,41.5,30.18,NW,315,2.0,5.0,58,0.00,,,0.00,meteohub,2013-01-11 10:39:00,
2013-01-11 11:55:00,56.1,41.5,30.18,WNW,293,4.0,7.0,57,0.00,,,0.00,meteohub,2013-01-11 10:55:00,
2013-01-11 12:11:00,57.4,42.1,30.18,WSW,248,2.0,5.0,56,0.00,,,0.00,meteohub,2013-01-11 11:11:00,
2013-01-11 12:26:00,57.2,40.8,30.17,WSW,248,4.0,6.0,54,0.00,,,0.00,meteohub,2013-01-11 11:26:00,
2013-01-11 12:42:00,57.6,41.2,30.17,WSW,248,3.0,7.0,54,0.00,,,0.00,meteohub,2013-01-11 11:42:00,
2013-01-11 12:57:00,57.7,42.1,30.16,West,270,2.0,5.0,55,0.00,,,0.00,meteohub,2013-01-11 11:57:00,
2013-01-11 13:13:00,58.8,43.0,30.16,WNW,293,3.0,6.0,55,0.00,,,0.00,meteohub,2013-01-11 12:13:00,
2013-01-11 13:29:00,58.3,43.3,30.15,West,270,2.0,8.0,57,0.00,,,0.00,meteohub,2013-01-11 12:29:00,
2013-01-11 13:44:00,58.6,44.8,30.14,WNW,293,4.0,9.0,60,0.00,,,0.00,meteohub,2013-01-11 12:44:00,
2013-01-11 13:59:00,58.6,43.5,30.14,West,270,3.0,7.0,57,0.00,,,0.00,meteohub,2013-01-11 12:59:00,
2013-01-11 14:14:00,59.4,43.3,30.14,WNW,293,1.0,6.0,55,0.00,,,0.00,meteohub,2013-01-11 13:14:00,
2013-01-11 14:30:00,59.4,45.3,30.14,WNW,293,3.0,5.0,59,0.00,,,0.00,meteohub,2013-01-11 13:30:00,
2013-01-11 14:45:00,59.5,45.0,30.14,WSW,248,3.0,6.0,58,0.00,,,0.00,meteohub,2013-01-11 13:45:00,
2013-01-11 15:01:00,59.5,46.0,30.14,WNW,293,4.0,7.0,61,0.00,,,0.00,meteohub,2013-01-11 14:01:00,
2013-01-11 15:16:00,59.2,46.4,30.14,West,270,4.0,7.0,62,0.00,,,0.00,meteohub,2013-01-11 14:16:00,
2013-01-11 15:31:00,58.6,45.9,30.14,West,270,4.0,10.0,62,0.00,,,0.00,meteohub,2013-01-11 14:31:00,
2013-01-11 15:46:00,58.8,46.2,30.14,West,270,4.0,6.0,63,0.00,,,0.00,meteohub,2013-01-11 14:46:00,
2013-01-11 16:01:00,58.6,45.9,30.14,WSW,248,2.0,6.0,62,0.00,,,0.00,meteohub,2013-01-11 15:01:00,
2013-01-11 16:17:00,58.5,45.7,30.14,WSW,248,2.0,5.0,62,0.00,,,0.00,meteohub,2013-01-11 15:17:00,
2013-01-11 16:32:00,58.3,45.7,30.14,WNW,293,3.0,5.0,63,0.00,,,0.00,meteohub,2013-01-11 15:32:00,
2013-01-11 16:48:00,57.7,45.7,30.14,WNW,293,3.0,5.0,64,0.00,,,0.00,meteohub,2013-01-11 15:48:00,
2013-01-11 17:03:00,56.8,45.3,30.15,NW,315,2.0,5.0,65,0.00,,,0.00,meteohub,2013-01-11 16:03:00,
2013-01-11 17:18:00,56.5,46.2,30.15,NNE,23,2.0,4.0,68,0.00,,,0.00,meteohub,2013-01-11 16:18:00,
2013-01-11 17:35:00,55.8,47.5,30.15,ENE,68,1.0,3.0,73,0.00,,,0.00,meteohub,2013-01-11 16:35:00,
2013-01-11 17:50:00,54.3,47.3,30.15,NNE,23,1.0,2.0,76,0.00,,,0.00,meteohub,2013-01-11 16:50:00,
2013-01-11 18:06:00,53.8,47.1,30.15,NNE,23,1.0,3.0,78,0.00,,,0.00,meteohub,2013-01-11 17:06:00,
2013-01-11 18:21:00,52.5,46.6,30.16,ENE,68,2.0,4.0,80,0.00,,,0.00,meteohub,2013-01-11 17:21:00,
2013-01-11 18:37:00,51.8,46.4,30.16,ENE,68,2.0,4.0,81,0.00,,,0.00,meteohub,2013-01-11 17:37:00,
2013-01-11 18:52:00,51.3,46.2,30.16,ENE,68,2.0,4.0,83,0.00,,,0.00,meteohub,2013-01-11 17:52:00,
2013-01-11 19:09:00,50.9,46.2,30.16,NE,45,2.0,4.0,84,0.00,,,0.00,meteohub,2013-01-11 18:09:00,
2013-01-11 19:24:00,50.0,45.9,30.16,ENE,68,2.0,4.0,85,0.00,,,0.00,meteohub,2013-01-11 18:24:00,
2013-01-11 19:40:00,49.3,45.5,30.17,ENE,68,1.0,2.0,86,0.00,,,0.00,meteohub,2013-01-11 18:40:00,
2013-01-11 19:55:00,48.9,45.1,30.17,ENE,68,1.0,3.0,87,0.00,,,0.00,meteohub,2013-01-11 18:55:00,
2013-01-11 20:11:00,48.6,45.1,30.17,ENE,68,1.0,3.0,88,0.00,,,0.00,meteohub,2013-01-11 19:11:00,
2013-01-11 20:26:00,48.6,45.5,30.17,ENE,68,0.0,1.0,89,0.00,,,0.00,meteohub,2013-01-11 19:26:00,
2013-01-11 20:41:00,48.7,45.3,30.17,ENE,68,1.0,3.0,88,0.00,,,0.00,meteohub,2013-01-11 19:41:00,
2013-01-11 20:56:00,48.7,45.3,30.17,ENE,68,0.0,1.0,88,0.00,,,0.00,meteohub,2013-01-11 19:56:00,
2013-01-11 21:13:00,48.6,45.3,30.16,ENE,68,1.0,2.0,88,0.00,,,0.00,meteohub,2013-01-11 20:13:00,
2013-01-11 21:28:00,48.6,45.1,30.17,ENE,68,0.0,0.0,88,0.00,,,0.00,meteohub,2013-01-11 20:28:00,
2013-01-11 21:44:00,48.0,45.0,30.17,ENE,68,0.0,0.0,88,0.00,,,0.00,meteohub,2013-01-11 20:44:00,
2013-01-11 21:59:00,47.8,44.6,30.17,ENE,68,0.0,0.0,88,0.00,,,0.00,meteohub,2013-01-11 20:59:00,
2013-01-11 22:15:00,47.3,44.4,30.17,ENE,68,0.0,0.0,89,0.00,,,0.00,meteohub,2013-01-11 21:15:00,
2013-01-11 22:30:00,46.9,44.4,30.17,ENE,68,1.0,2.0,90,0.00,,,0.00,meteohub,2013-01-11 21:30:00,
2013-01-11 22:46:00,47.8,44.4,30.17,NNE,23,0.0,1.0,88,0.00,,,0.00,meteohub,2013-01-11 21:46:00,
2013-01-11 23:01:00,48.0,45.3,30.17,WNW,293,1.0,3.0,90,0.00,,,0.00,meteohub,2013-01-11 22:01:00,
2013-01-11 23:17:00,48.6,45.1,30.17,West,270,0.0,1.0,87,0.00,,,0.00,meteohub,2013-01-11 22:17:00,
2013-01-11 23:32:00,49.3,43.2,30.17,West,270,2.0,3.0,79,0.00,,,0.00,meteohub,2013-01-11 22:32:00,
2013-01-11 23:48:00,49.5,42.6,30.17,West,270,1.0,2.0,77,0.00,,,0.00,meteohub,2013-01-11 22:48:00,